Regional Weather Roundup
Issued by NWS

Home | Current Version | Previous Version | Graphics & Text | Print | Product List | Glossary On
Versions: 1 2 3 4 5 6 7 8 9 10 11 12 13 14 15 16 17 18 19 20 21 22 23 24 25 26 27 28 29 30 31 32 33 34 35 36 37 38 39 40 41 42 43 44 45 46 47 48 49 50
000
ASUS43 KDMX 241206
RWRIA

WEATHER ROUNDUP FOR IOWA
NATIONAL WEATHER SERVICE DES MOINES IA
700 AM CDT MON APR 24 2017

NOTE: "FAIR" INDICATES FEW OR NO CLOUDS BELOW 12,000 FEET WITH NO
SIGNIFICANT WEATHER AND/OR OBSTRUCTIONS TO VISIBILITY.

* - THESE STATIONS ARE NOT NWS STATIONS...THUS NOT UNDER NWS
QUALITY CONTROL.  THEY ALSO DO NOT REPORT WEATHER SUCH
AS PRECIPITATION OR FOG.

IAZ001>003-012>014-020>022-031>034-043>046-241300-
   NORTHWEST IOWA

CITY           SKY/WX    TMP DP  RH WIND       PRES   REMARKS
CARROLL *      CLOUDY    48  37  66 S12       29.81S
CHEROKEE *     CLOUDY    49  37  62 S10G16    29.77S
DENISON *      CLOUDY    50  36  57 S13       29.81S
LE MARS *      CLOUDY    54  36  50 S17G24    29.73F
ORANGE CITY *  MOCLDY    52  37  58 S10       29.73F
SHELDON *      CLOUDY    48  36  61 S16       29.72F
SIOUX CITY     CLOUDY    50  38  63 SE14      29.73F
6HR MIN TEMP:  49; 6HR MAX TEMP:  59;

SPENCER        CLOUDY    48  36  63 MISG      29.77S
6HR MIN TEMP:  48; 6HR MAX TEMP:  51;

STORM LAKE *   CLOUDY    48  36  61 S14       29.78F
$$

IAZ055>058-069>071-079>083-090>094-241300-
   SOUTHWEST IOWA

CITY           SKY/WX    TMP DP  RH WIND       PRES   REMARKS
ATLANTIC *     CLOUDY    52  37  58 S9G16     29.83R
AUDUBON *      CLOUDY    48  37  66 S6        29.83R
CLARINDA *     CLOUDY    48  37  66 S8        29.87F
COUNCIL BLFS * PTCLDY    46  39  76 SE9       29.80S
CRESTON *      MOCLDY    48  36  61 S12       29.88S
HARLAN  *      MOCLDY    50  37  62 S10       29.83S
LAMONI         CLOUDY    46  34  62 S8        29.90S
6HR MIN TEMP:  46; 6HR MAX TEMP:  53;

RED OAK *      PTCLDY    50  37  62 S12       29.83S
SHENANDOAH *   PTCLDY    50  37  62 S15       29.83F
$$

IAZ047>049-059>061-072>074-084-241300-
   CENTRAL IOWA

CITY           SKY/WX    TMP DP  RH WIND       PRES   REMARKS
AMES           MOCLDY    45  37  73 SE8       29.87R
6HR MIN TEMP:  41; 6HR MAX TEMP:  47;

ANKENY *       CLOUDY    46  36  66 S7        29.89S
BOONE *        CLOUDY    48  36  61 S9        29.85S
CHARITON *     CLOUDY    46  36  66 S8        29.91R
DES MOINES     CLOUDY    50  34  54 SE9       29.88S
6HR MIN TEMP:  49; 6HR MAX TEMP:  53;

GRINNELL*      CLOUDY    47  33  58 S7        29.93R
KNOXVILLE *    CLOUDY    48  32  53 S7        29.90R
MARSHALLTOWN   CLOUDY    51  33  50 S10       29.89R
6HR MIN TEMP:  47; 6HR MAX TEMP:  54;

NEWTON *       CLOUDY    46  34  61 S9        29.89S
PELLA *        CLOUDY    49  33  53 SE7       29.92R
PERRY *          N/A     47  33  59 SE12      29.84F
$$

IAZ004>006-015-016-023>025-035-036-241300-
   NORTH CENTRAL IOWA

CITY           SKY/WX    TMP DP  RH WIND       PRES   REMARKS
ALGONA *       CLOUDY    50  36  57 S12       29.82S
CLARION *      CLOUDY    48  36  61 S9        29.85R
ESTHERVILLE    CLOUDY    47  36  65 S15       29.79S
6HR MIN TEMP:  46; 6HR MAX TEMP:  50;

FORT DODGE *   CLOUDY    52  32  46 S8        29.84R
MASON CITY     CLOUDY    43  36  76 S5        29.87R
6HR MIN TEMP:  41; 6HR MAX TEMP:  46;

FOREST CITY *    N/A     43  36  75 SE8       29.84F
WEBSTER CITY * PTCLDY    48  36  61 S12       29.83S
IOWA FALLS *     N/A     50  35  56 S9        29.88R
$$

IAZ007>011-017>019-026>030-037>042-050>054-066-241300-
   NORTHEAST IOWA

CITY           SKY/WX    TMP DP  RH WIND       PRES   REMARKS
CEDAR RAPIDS   CLOUDY    45  34  65 SE8       29.94R
6HR MIN TEMP:  42; 6HR MAX TEMP:  51;

CHARLES CITY * CLOUDY    48  32  53 SE9       29.89R
CLINTON *      CLOUDY    43  36  76 E7        29.99R
DECORAH *      PTCLDY    50  32  50 SE8       29.90S
DUBUQUE        CLOUDY    49  32  52 SE12      29.96S
6HR MIN TEMP:  45; 6HR MAX TEMP:  51;

MONTICELLO *   CLOUDY    46  34  61 SE9       29.95S
WATERLOO       PTCLDY    49  33  54 SE7       29.89S
6HR MIN TEMP:  45; 6HR MAX TEMP:  54;

$$

IAZ064-065-067-068-078-241300-
   EAST CENTRAL IOWA

CITY           SKY/WX    TMP DP  RH WIND       PRES   REMARKS
DAVENPORT      CLOUDY    46  31  55 E7        29.98R
6HR MIN TEMP:  43; 6HR MAX TEMP:  52;

IOWA CITY      CLOUDY    42  35  76 CALM      29.97R
6HR MIN TEMP:  40; 6HR MAX TEMP:  48;

MT. PLEASANT * CLOUDY    47  34  59 S6        29.96R
MUSCATINE *    CLOUDY    41  36  81 CALM      29.97S
QUAD CITIES    CLOUDY    40  35  83 E6        29.97S
6HR MIN TEMP:  38; 6HR MAX TEMP:  46;

$$

IAZ062-063-075>077-085>089-095>099-241300-
   SOUTHEAST IOWA

CITY           SKY/WX    TMP DP  RH WIND       PRES   REMARKS
BURLINGTON     CLOUDY    51  32  48 SE8       29.96R
6HR MIN TEMP:  44; 6HR MAX TEMP:  51;

FAIRFIELD *    PTCLDY    48  30  49 S6        29.95R
FORT MADISON * CLOUDY    54  28  37 SE8       29.96F
KEOKUK *       CLOUDY    48  34  57 SE8       29.96R
OSKALOOSA *      N/A     42  32  68 S6        29.94R
CENTERVILLE *    N/A     45  34  65 CALM      29.95R
OTTUMWA        CLOUDY    47  32  56 S7        29.93R
6HR MIN TEMP:  44; 6HR MAX TEMP:  51;

$$

ABBREVIATIONS USED IN REMARKS
   TC - TEMPERATURES IN CELSIUS
  WCI - WIND CHILL INDEX
   HX - HEAT INDEX
  VSB - VISIBILITY
$$




USA.gov is the U.S. government's official web portal to all federal, state and local government web resources and services.